Погода в Агараке

Армения     38°51′54″N   46°11′46″E
темп.,
°C
ветер,
м/с
пор.,
м/с
влажн.,
%
обл.,
%
осадки,
мм/ч
давл.,
гПа
погр.,
м
6 мая, чт
чт601:00+8всв229097 0.4 1017341
04:00+8всв229081 0.4 1016286
07:00+8в228775 0.0 1016276
10:00+11всв227135 0.0 1016710
13:00+15св325618 0.1 10141005
16:00+16св43596 0.3 1012864
19:00+12всв337542 0.2 1014544
22:00+10всв228382 0.3 1015322
7 мая, пт
пт701:00+10всв2286100 0.1 1014243
04:00+9в2290100 0.2 1014216
07:00+9св229198 2.1 1014186
10:00+12всв337962 2.1 1015512
13:00+15всв4367100 0.3 1014765
16:00+13всв347286 0.9 1014728
19:00+11св2286100 2.1 1017290
22:00+10всв2289100 5.0 1018202
8 мая, сб
сб801:00+10в2290100 0.4 1019154
04:00+10вюв2286100 0.9 1019103
07:00+10вюв12805 0.1 1019127
10:00+14всв22560 0.1 1018868
13:00+17св32460 0.0 10171294
16:00+19св32460 0.0 10151247
19:00+17всв22600 0.0 1015446
22:00+13в22795 0.0 101720
9 мая, вс
вс901:00+11вюв118525 0.0 101611
04:00+11вюв11820 0.0 101510
07:00+14ю11682 0.0 101425
10:00+20сз124510 0.0 1012787
13:00+24сз243099 0.0 10091888
16:00+26зсз24232 0.0 10062200
19:00+22вюв3448100 0.0 1006169
22:00+14всв338886 0.9 1012297
10 мая, пн
пн1001:00+13всв129184 2.1 1013309
04:00+11всв229483 2.7 1012228
07:00+11всв239295 0.4 1013364
10:00+10св4494100 0.5 1015381
13:00+7всв339199 0.1 1018450
16:00+5всв449199 0.1 1020403
19:00+4в349195 0.1 1021376
22:00+3в349169 0.1 1022303